Montpelier, VT

2:54 AM EDT on August 27, 2016 (GMT -0400)
Knapp State

Weather History for KMPV - March, 2014

Change the Weather History Date:

Saturday, March 15, 2014

  Actual Average Record
Temperature  
Mean Temperature 33 °F 28 °F  
Max Temperature 44 °F 38 °F 72 °F (1990)
Min Temperature 21 °F 18 °F -3 °F (1993)
Degree Days  
Heating Degree Days 32 37  
Month to date heating degree days 741 589  
Since 1 July heating degree days 6906 6497  
Cooling Degree Days 0 0  
Month to date cooling degree days 0 0  
Year to date cooling degree days 0 0  
Moisture  
Dew Point 26 °F    
Average Humidity 73    
Maximum Humidity 92    
Minimum Humidity 53    
Precipitation  
Precipitation 0.14 in 0.07 in 0.91 in (1986)
Month to date precipitation 1.32 1.10  
Year to date precipitation 5.63 5.59  
Sea Level Pressure  
Sea Level Pressure 29.77 in    
Wind  
Wind Speed 9 mph (West)    
Max Wind Speed 23 mph    
Max Gust Speed 32 mph    
Visibility 5 miles    
Events Fog , Rain , Snow    
T = Trace of Precipitation, MM = Missing Value Source: NWS Daily Summary

Daily Weather History Graph

Daily Weather History Graph

Search for Another Location

Airport or City:

Trip Planner

Search our weather history database for the weather conditions in past years. The results will help you decide how hot, cold, wet, or windy it might be!

Date:

Astronomy

Mar. 15, 2014 Rise Set
Actual Time 7:02 AM EDT 6:56 PM EDT
Civil Twilight 6:33 AM EDT 7:25 PM EDT
Nautical Twilight 6:00 AM EDT 7:58 PM EDT
Astronomical Twilight 5:25 AM EDT 8:33 PM EDT
Moon 6:12 PM EDT (3/15) 6:14 AM EDT (3/15)
Length of Visible Light 12h 51m
Length of Day
11h 53m
Waxing Gibbous, 99% of the Moon is Illuminated
Mar 15
Waxing Gibbous
Mar 16
Full
Mar 23
Last Quarter
Mar 30
New
Apr 7
First Quarter

Hourly Weather History & Observations

Time (EDT) Temp. Windchill Dew Point Humidity Pressure Visibility Wind Dir Wind Speed Gust Speed Precip Events Conditions
12:51 AM 28.0 °F 19.3 °F 18.0 °F 66% 29.78 in 10.0 mi South 9.2 mph - N/A   Partly Cloudy
1:51 AM 27.0 °F 18.7 °F 18.0 °F 69% 29.73 in 10.0 mi South 8.1 mph - N/A   Mostly Cloudy
2:51 AM 24.1 °F - 17.1 °F 75% 29.71 in 10.0 mi Calm Calm - N/A   Clear
3:51 AM 27.0 °F 18.7 °F 18.0 °F 69% 29.70 in 10.0 mi South 8.1 mph - N/A   Clear
4:51 AM 27.0 °F 20.5 °F 19.0 °F 72% 29.67 in 10.0 mi South 5.8 mph - N/A   Partly Cloudy
5:51 AM 21.9 °F 15.7 °F 18.0 °F 85% 29.67 in 10.0 mi South 4.6 mph - N/A   Mostly Cloudy
6:51 AM 30.9 °F 27.5 °F 21.9 °F 69% 29.64 in 10.0 mi Variable 3.5 mph - N/A   Scattered Clouds
7:51 AM 27.0 °F - 19.9 °F 75% 29.65 in 10.0 mi Calm Calm - N/A   Scattered Clouds
8:51 AM 39.9 °F 32.9 °F 27.0 °F 60% 29.65 in 10.0 mi SW 11.5 mph 18.4 mph N/A   Clear
9:51 AM 43.0 °F 36.8 °F 28.0 °F 56% 29.64 in 10.0 mi WSW 11.5 mph - N/A   Mostly Cloudy
10:51 AM 44.1 °F 38.1 °F 28.0 °F 53% 29.65 in 10.0 mi SSW 11.5 mph - N/A   Mostly Cloudy
11:51 AM 43.0 °F 37.2 °F 28.9 °F 58% 29.66 in 10.0 mi WSW 10.4 mph 18.4 mph N/A   Overcast
12:51 PM 42.1 °F 33.3 °F 28.9 °F 60% 29.66 in 10.0 mi WSW 19.6 mph 31.1 mph N/A   Overcast
1:51 PM 41.0 °F 33.1 °F 28.0 °F 60% 29.68 in 10.0 mi WSW 15.0 mph 31.1 mph N/A   Overcast
2:51 PM 39.9 °F 31.4 °F 30.9 °F 70% 29.69 in 10.0 mi WSW 16.1 mph 23.0 mph N/A   Overcast
3:29 PM 37.9 °F 30.5 °F 32.0 °F 79% 29.67 in 8.0 mi West 11.5 mph 21.9 mph 0.00 in Rain Light Rain
3:51 PM 36.0 °F 29.0 °F 33.1 °F 89% 29.73 in 4.0 mi WNW 9.2 mph 19.6 mph 0.02 in Rain Light Rain
4:06 PM 35.1 °F 27.4 °F 33.1 °F 92% 29.69 in 4.0 mi West 10.4 mph - 0.01 in Rain Light Rain
4:35 PM 34.0 °F 27.2 °F 32.0 °F 92% 29.71 in 2.5 mi West 8.1 mph - 0.04 in Snow Light Snow
4:42 PM 34.0 °F 26.6 °F 32.0 °F 92% 29.71 in 3.0 mi WSW 9.2 mph - 0.05 in Snow Light Snow
4:51 PM 35.1 °F 28.6 °F 32.0 °F 89% 29.75 in 5.0 mi WSW 8.1 mph - 0.05 in Snow Light Snow
5:44 PM 35.1 °F 29.3 °F 30.9 °F 85% 29.73 in 9.0 mi SW 6.9 mph - 0.00 in Snow Light Snow
5:51 PM 35.1 °F 29.3 °F 30.9 °F 85% 29.78 in 8.0 mi SW 6.9 mph - 0.01 in   Overcast
6:27 PM 35.1 °F 31.0 °F 30.9 °F 85% 29.75 in 1.8 mi WSW 4.6 mph - 0.00 in Snow Light Snow
6:34 PM 34.0 °F 27.2 °F 30.9 °F 89% 29.76 in 3.0 mi WSW 8.1 mph - 0.00 in Snow Light Snow
6:51 PM 35.1 °F 29.3 °F 30.0 °F 82% 29.80 in 5.0 mi WSW 6.9 mph - 0.00 in Snow Light Snow
7:10 PM 34.0 °F 24.2 °F 30.0 °F 85% 29.78 in 1.5 mi West 15.0 mph 20.7 mph 0.01 in Snow Light Snow
7:12 PM 33.1 °F 23.9 °F 30.0 °F 89% 29.78 in 1.0 mi West 12.7 mph 20.7 mph 0.01 in Snow Light Snow
7:15 PM 33.1 °F 23.0 °F 30.0 °F 89% 29.77 in 0.8 mi WSW 15.0 mph 20.7 mph 0.01 in Snow Light Snow
7:25 PM 32.0 °F 24.8 °F 30.9 °F 96% 29.77 in 1.0 mi SW 8.1 mph - 0.02 in Snow Light Snow
7:27 PM 32.0 °F 24.8 °F 30.9 °F 96% 29.77 in 2.0 mi SW 8.1 mph - 0.02 in Snow Light Snow
7:34 PM 33.1 °F 25.5 °F 30.0 °F 89% 29.78 in 9.0 mi SW 9.2 mph - 0.02 in Snow Light Snow
7:41 PM 33.1 °F 26.9 °F 30.0 °F 89% 29.78 in 7.0 mi Variable 6.9 mph - 0.02 in Snow Light Snow
7:51 PM 33.1 °F - 28.9 °F 85% 29.82 in 6.0 mi Calm Calm - 0.02 in Snow Light Snow
8:51 PM 34.0 °F 26.6 °F 25.0 °F 70% 29.82 in 10.0 mi WSW 9.2 mph 18.4 mph 0.00 in   Overcast
9:29 PM 30.9 °F 20.2 °F 26.1 °F 82% 29.82 in 2.0 mi WNW 15.0 mph 20.7 mph 0.00 in Snow Light Snow
9:31 PM 30.0 °F 20.5 °F 27.0 °F 88% 29.82 in 1.2 mi WNW 11.5 mph 20.7 mph 0.00 in Snow Light Snow
9:33 PM 30.0 °F 19.5 °F 28.0 °F 92% 29.82 in 0.8 mi WNW 13.8 mph 20.7 mph 0.00 in Snow Light Snow
9:51 PM 28.0 °F 16.1 °F 26.1 °F 92% 29.87 in 0.8 mi WNW 16.1 mph 27.6 mph 0.00 in Snow Light Snow
10:07 PM 28.0 °F 19.3 °F 26.1 °F 92% 29.84 in 1.2 mi West 9.2 mph - 0.00 in Snow Light Snow
10:12 PM 28.0 °F 18.1 °F 26.1 °F 92% 29.84 in 2.0 mi West 11.5 mph - 0.00 in Snow Light Snow
10:17 PM 28.0 °F 18.1 °F 25.0 °F 88% 29.85 in 1.8 mi West 11.5 mph - 0.00 in Snow Light Snow
10:27 PM 28.0 °F 18.1 °F 25.0 °F 88% 29.85 in 1.0 mi West 11.5 mph 19.6 mph 0.00 in Snow Light Snow
10:40 PM 28.0 °F 18.6 °F 25.0 °F 88% 29.86 in 1.5 mi WNW 10.4 mph 16.1 mph 0.00 in Snow Light Snow
10:51 PM 28.0 °F 18.6 °F 25.0 °F 88% 29.91 in 1.8 mi WNW 10.4 mph 20.7 mph 0.00 in Snow Light Snow
10:56 PM 27.0 °F 17.3 °F 25.0 °F 92% 29.87 in 1.2 mi WNW 10.4 mph - 0.00 in Snow Light Snow
11:00 PM 27.0 °F 19.5 °F 26.1 °F 96% 29.87 in 0.8 mi NNW 6.9 mph - 0.01 in Snow Light Snow
11:27 PM 26.1 °F 13.1 °F 24.1 °F 92% 29.88 in 0.5 mi WNW 17.3 mph 25.3 mph 0.03 in Fog , Snow Snow
11:33 PM 25.0 °F 9.9 °F 21.9 °F 88% 29.89 in 1.0 mi NW 23.0 mph 32.2 mph 0.03 in Snow Light Snow
11:40 PM 24.1 °F 12.0 °F 19.9 °F 84% 29.89 in 1.2 mi NW 13.8 mph 32.2 mph 0.04 in Snow Light Snow
11:47 PM 24.8 °F 14.6 °F 19.4 °F 80% 29.89 in 1.0 mi NW 10.4 mph 21.9 mph 0.04 in Snow Light Snow
11:51 PM 24.1 °F 13.7 °F 19.9 °F 84% 29.93 in 1.0 mi NW 10.4 mph 19.6 mph 0.04 in Snow Light Snow
11:58 PM 24.1 °F 14.4 °F 19.9 °F 84% 29.89 in 1.2 mi NW 9.2 mph 19.6 mph 0.00 in Snow Light Snow